Back to catalog

STARLINK-11340

AliveCommunicationsVLEO
NORAD 61690·PAYLOAD·🇺🇸 United States

Launched Oct 30, 2024 from Vandenberg Space Force Base

Loading…

Next Passes (next 24 hours)

TLE

FreshSource: CelesTrak SupGP

Epoch: Sep 14, 2026, 15:04 UTC

1 61690C 24195D   26257.62826389  .00023128  00000+0  19057-3 0  2576
2 61690  53.1565 175.0413 0001169  92.9552 356.3737 15.69690472    13

Track STARLINK-11340 in real time with AllMySat

Download on the App Store